Dewpoint
63 63 64 65 64 64 62 62 62 62 62 62 62 62 59 59 62 63 63 64 64 67 69 68 67 67 66 67 66 66 67 66 66 66 65 65 64 64 62 61 60 60 60
62 62 63 63 63 64 62 61 61 61 60 61 62 62 60 58 62 64 63 64 64 65 68 69 68 67 67 67 67 66 66 66 66 66 64 64 64 64 62 61 60 59 59
62 61 61 62 63 63 64 62 62 61 61 61 60 60 59 57 59 63 64 64 63 64 66 68 69 68 68 68 68 67 66 66 66 66 64 64 64 64 62 61 60 60 59
62 61 60 61 62 63 63 62 61 60 59 59 58 58 57 57 57 61 63 64 64 63 64 66 67 68 68 67 67 67 67 66 66 66 65 65 64 64 62 61 60 60 59
63 61 59 60 62 62 62 61 61 60 58 58 58 58 58 57 58 58 62 63 65 65 65 64 65 66 67 67 67 66 66 66 65 65 65 65 65 64 63 61 60 60 60
63 62 60 60 62 60 60 61 60 60 59 58 56 55 58 58 59 61 61 62 64 64 65 65 65 64 64 65 65 66 66 66 66 66 65 65 65 64 63 62 60 60 60
64 63 61 61 61 59 59 61 60 60 59 60 59 59 59 59 60 60 61 62 63 63 65 64 64 65 64 63 63 64 65 65 66 66 66 65 65 65 64 62 61 60 60
63 63 62 60 61 59 60 60 60 60 60 61 58 58 56 59 61 62 63 63 63 64 63 64 65 65 64 64 64 63 63 63 63 63 63 63 63 65 64 63 61 61 59
63 63 62 61 61 61 59 61 61 60 58 61 60 58 57 56 59 61 61 62 62 63 63 63 64 64 64 64 62 61 60 59 59 60 61 61 62 62 63 64 62 61 59
62 63 62 62 61 61 60 60 61 61 61 60 62 62 61 60 58 57 59 60 61 61 62 62 62 61 61 60 59 58 57 56 56 57 59 59 60 61 62 63 63 61 59
62 62 63 62 62 62 62 61 61 62 61 59 61 61 61 60 59 58 57 58 57 58 59 59 59 58 57 57 57 56 54 54 53 54 56 57 58 59 60 62 62 60 58
63 63 62 63 63 62 63 63 63 63 62 62 62 62 61 59 59 58 57 58 57 58 57 57 56 56 56 55 54 53 52 52 52 53 54 54 56 58 61 63 61 58 57
64 64 64 65 64 64 64 64 64 64 64 63 63 62 63 62 62 60 59 58 57 56 55 54 55 55 55 54 53 51 52 51 50 50 51 53 54 58 60 59 58 57 56
65 65 66 66 65 65 65 65 65 65 65 64 64 64 63 63 62 61 60 58 54 54 54 55 52 52 52 52 51 50 51 49 49 49 49 50 52 53 58 57 57 56 55
66 66 66 66 66 66 66 66 65 65 65 64 64 64 63 63 63 62 61 60 58 52 53 54 52 51 52 51 50 51 51 49 48 48 48 49 50 51 55 56 55 54 54
66 66 66 66 66 66 66 66 65 65 64 64 64 63 63 63 62 62 61 60 59 57 54 53 51 50 50 50 49 50 49 48 47 47 47 47 49 50 53 55 54 54 53
66 66 66 66 65 65 65 64 64 64 63 63 62 62 62 61 60 59 59 58 57 56 53 50 50 50 50 50 49 49 49 49 49 46 46 47 49 51 53 54 53 53 50
66 65 65 65 65 64 64 63 63 63 62 62 61 60 60 59 58 57 56 55 54 54 53 51 51 50 50 48 48 48 47 47 47 46 45 45 47 50 51 51 50 49 47
64 64 64 64 64 63 63 63 63 62 61 60 59 58 56 55 54 54 53 52 52 52 51 50 49 48 46 47 47 46 45 45 44 43 44 44 44 45 47 48 46 45 45
63 63 63 63 63 62 62 61 60 58 56 55 54 54 53 53 52 52 51 51 51 50 49 48 48 46 46 45 44 43 43 42 42 42 42 43 43 43 43 43 43 43 42
62 62 61 61 60 59 58 57 55 53 51 50 49 50 50 50 50 50 50 50 49 49 48 47 46 44 43 42 43 43 42 40 40 40 40 40 41 41 41 41 42 41 41
60 60 59 57 56 54 53 53 52 50 49 48 47 47 46 46 44 44 44 45 47 46 45 44 44 43 42 43 43 41 41 39 40 40 39 37 39 38 39 41 40 40 40
57 56 54 53 52 49 49 49 49 48 47 46 44 43 41 41 42 42 41 40 41 42 43 42 40 40 41 42 42 40 39 40 41 39 38 36 35 36 36 39 40 40 40
54 53 51 50 48 45 46 46 45 43 42 41 40 39 39 38 38 38 39 39 39 39 39 41 41 42 42 42 42 41 41 38 36 36 38 35 33 33 33 37 39 39 38
51 49 48 47 45 42 41 41 40 38 36 36 37 38 37 37 38 38 36 34 36 36 38 37 38 39 39 40 41 40 37 36 35 35 35 35 32 31 31 32 37 37 37
48 46 45 44 43 40 38 37 37 37 35 35 36 36 36 35 36 36 35 34 33 34 35 35 36 37 37 40 38 39 38 35 35 33 35 35 31 32 30 31 32 35 35
Wind_Speed
15 14 14 13 14 14 14 13 13 12 11 9 8 8 9 8 7 6 5 15 20 19 17 16 15 15 16 15 15 14 13 12 11 10 10 10 10 11 7 5 5 4 4
16 16 15 15 15 14 14 14 14 12 11 9 10 9 9 9 7 7 6 7 18 19 17 16 15 15 16 16 15 16 15 15 14 14 14 15 14 13 11 8 7 8 9
18 17 15 15 15 15 14 12 12 10 10 10 11 9 9 9 9 10 8 7 10 18 17 16 16 15 16 16 17 17 17 17 17 18 18 17 17 16 14 12 11 12 12
20 18 16 16 15 14 14 13 13 12 12 12 11 11 10 10 11 11 10 8 7 11 16 18 17 16 17 18 17 18 18 20 20 19 19 19 19 19 19 17 15 13 14
21 20 18 16 15 15 15 15 14 13 13 13 12 12 12 12 11 11 12 12 12 11 11 13 18 18 17 16 16 18 18 18 21 21 22 21 21 22 22 22 20 17 17
23 21 19 18 17 16 16 15 16 14 14 13 12 13 13 13 12 12 15 15 13 14 13 13 12 16 18 16 13 11 11 15 18 18 21 22 24 25 24 21 21 19 18
23 23 20 18 18 19 19 18 17 17 15 12 7 11 14 15 16 17 16 14 15 15 14 13 13 11 9 9 8 7 6 8 8 9 10 12 21 25 24 24 24 22 20
24 24 23 21 22 20 20 20 19 15 14 14 11 9 8 8 14 17 14 15 17 14 15 15 13 13 9 7 6 4 4 5 6 6 6 7 8 15 27 26 25 24 21
25 25 25 22 21 21 21 21 21 22 18 14 20 12 5 12 6 6 15 15 15 14 12 11 11 10 8 7 6 7 8 7 8 9 12 12 12 13 13 25 28 26 23
26 25 24 24 22 20 22 21 20 22 19 19 10 19 16 6 6 7 4 6 11 12 10 7 7 6 7 7 7 6 5 5 6 7 10 14 14 15 18 19 26 24 20
25 26 25 23 23 21 22 22 20 23 21 22 20 12 19 17 13 13 16 6 6 8 10 12 9 6 4 5 5 6 6 6 6 6 9 12 14 17 20 20 24 22 23
19 23 24 23 22 22 22 22 23 21 22 20 20 19 19 12 17 16 15 15 9 7 8 7 9 10 8 5 7 6 6 5 6 6 8 11 13 18 15 13 22 23 23
19 22 24 23 22 23 22 21 21 22 22 23 23 22 20 21 14 13 15 11 11 5 3 4 7 10 10 7 4 5 2 6 7 8 9 11 12 13 11 18 22 24 23
19 19 22 22 23 22 21 20 19 20 20 21 25 23 21 20 19 20 19 13 7 6 4 4 4 3 3 3 4 1 3 2 5 6 7 10 11 12 15 17 19 18 18
15 18 20 21 21 21 21 20 19 19 19 20 21 21 21 18 17 17 17 16 18 10 15 9 5 6 6 7 3 2 2 7 7 7 9 10 12 12 12 19 17 13 16
17 16 18 18 17 18 18 17 17 16 16 16 16 17 17 16 15 15 16 15 14 11 8 5 2 5 4 3 1 1 1 3 6 10 11 11 12 13 12 19 20 18 18
16 17 16 16 16 17 16 16 16 15 17 16 15 16 17 13 13 12 12 12 11 10 9 3 3 6 5 4 3 2 2 3 4 12 15 15 11 8 15 22 22 23 22
15 15 14 14 13 14 14 17 17 15 18 17 17 16 16 13 11 10 10 8 10 8 5 11 4 8 5 3 2 2 5 6 8 11 12 14 13 7 14 20 22 24 24
15 14 14 15 14 15 15 14 15 15 15 13 12 14 15 17 14 14 14 13 10 7 9 8 3 3 3 2 2 3 3 4 6 8 7 10 12 10 4 16 17 14 14
16 16 14 13 13 13 13 13 12 10 9 10 12 14 13 10 17 16 16 16 15 12 10 8 5 3 2 2 1 2 4 2 3 2 7 10 9 10 11 15 15 22 21
15 14 14 12 11 11 11 11 12 15 18 18 16 14 14 16 15 13 11 14 14 10 9 8 6 4 5 4 4 3 5 3 3 2 2 5 4 6 11 14 16 18 17
14 13 13 14 13 11 17 20 20 18 17 21 22 18 17 21 20 17 13 13 10 12 9 7 7 8 7 5 5 5 5 3 3 2 2 1 1 4 7 8 15 18 19
14 13 13 13 12 14 23 23 23 18 16 13 18 17 14 13 16 15 16 17 14 9 8 8 7 7 7 6 5 6 6 5 5 3 4 4 2 5 2 4 13 17 19
15 14 14 16 17 16 28 28 26 20 21 19 14 15 15 11 12 14 9 10 8 6 5 4 5 5 6 4 6 3 4 4 1 2 4 5 5 4 3 3 13 16 17
15 13 14 18 21 19 28 31 27 23 22 19 16 15 15 12 11 9 9 9 8 6 3 1 4 5 5 6 5 5 5 5 6 7 8 6 5 4 5 5 8 16 17
17 16 14 13 21 22 23 26 23 21 22 17 13 12 12 12 11 9 8 8 6 5 4 2 1 2 1 5 7 7 6 8 5 4 9 10 7 5 3 4 10 11 13
Wind_Direction
190 191 195 195 196 196 200 205 208 210 215 215 227 235 232 237 241 237 230 206 207 205 209 206 211 214 214 210 210 215 217 218 218 210 207 209 208 207 204 208 221 228 223
196 197 196 201 203 202 205 209 211 216 220 220 224 234 250 251 246 235 228 208 212 211 214 216 214 220 223 221 217 215 216 218 216 216 215 213 217 211 204 207 224 232 236
201 201 204 205 207 204 204 212 221 223 224 224 233 229 235 247 254 251 239 227 210 220 223 223 226 225 227 229 220 221 223 222 218 217 221 221 216 208 208 204 219 226 241
203 204 210 212 207 206 209 215 216 225 237 235 235 235 234 233 237 239 242 241 230 226 226 234 232 234 236 239 239 231 225 223 223 221 225 227 219 211 205 203 215 229 240
207 208 211 212 207 210 213 215 217 222 230 236 245 251 245 244 239 233 233 235 231 224 228 229 235 240 244 251 248 244 243 239 232 227 227 230 223 219 213 204 207 214 227
208 209 214 212 207 214 217 217 223 222 231 241 245 251 257 253 246 233 231 230 230 230 231 230 227 233 236 245 255 266 271 250 246 245 239 237 228 221 216 213 209 211 224
210 210 214 212 209 215 219 216 219 228 233 226 240 257 257 246 241 236 232 228 225 227 230 228 226 228 229 228 235 242 255 265 281 275 275 268 246 225 219 215 212 207 216
209 209 210 211 212 216 219 217 213 216 235 213 224 243 268 256 235 234 230 226 227 220 224 225 225 225 221 219 218 217 241 254 254 267 272 266 261 240 229 218 216 210 207
208 208 210 211 211 212 218 216 212 213 224 214 213 220 211 234 249 203 232 230 230 223 220 219 222 222 221 223 224 235 235 247 272 270 273 271 262 253 247 218 215 209 206
209 208 210 211 212 213 219 218 216 216 216 223 213 226 241 247 224 252 220 244 237 232 221 213 220 234 250 256 246 249 265 269 278 293 293 284 274 273 263 249 223 208 195
206 208 209 210 213 214 219 219 215 217 216 224 220 214 226 234 245 249 262 242 246 236 210 204 207 219 227 267 272 251 237 254 268 275 277 287 293 286 275 248 204 195 187
201 207 209 211 213 216 218 217 219 219 221 225 231 229 221 220 227 228 237 249 237 209 206 207 190 191 184 230 245 249 240 269 290 289 293 294 293 288 267 228 182 185 187
200 206 206 208 212 215 218 218 218 220 223 222 224 228 231 234 230 219 230 238 228 190 178 194 234 206 171 194 245 253 327 289 304 320 311 306 296 285 206 182 188 189 191
201 204 205 210 215 217 219 217 219 221 223 225 229 226 227 227 218 221 230 209 234 200 173 178 190 186 83 138 214 230 224 306 339 334 317 304 299 311 220 198 200 189 197
202 201 205 208 214 216 218 217 217 220 218 223 230 230 230 227 222 221 222 214 224 184 209 188 166 183 166 176 183 259 334 5 335 337 340 322 302 282 247 201 184 183 216
202 201 203 206 208 209 213 211 217 219 218 225 228 229 229 225 211 212 211 210 208 205 181 155 172 123 141 230 176 70 351 288 1 341 349 331 309 286 241 191 183 176 162
202 206 204 203 204 204 203 208 217 215 215 220 214 223 222 204 203 196 195 185 178 164 172 131 129 131 168 214 206 229 255 338 333 5 355 342 327 283 214 190 183 174 160
201 201 200 200 199 201 197 205 209 211 217 218 216 206 207 188 180 167 162 151 146 133 138 158 156 132 175 191 264 313 13 12 1 9 11 0 339 283 206 177 162 159 157
188 188 187 188 193 200 201 207 207 210 212 209 203 198 177 152 140 136 131 126 116 88 90 123 81 75 115 53 294 24 1 358 30 7 16 44 43 40 152 162 146 131 119
179 181 182 184 188 194 197 199 197 180 152 142 139 134 124 130 141 139 139 133 131 127 125 118 142 150 168 173 241 281 319 345 313 11 47 63 72 80 89 93 108 129 125
183 183 173 174 181 189 188 169 152 142 133 118 104 104 112 120 121 126 137 138 132 133 139 154 161 171 190 198 216 190 228 232 261 251 346 47 63 108 111 110 120 127 130
169 170 172 167 165 165 160 151 141 135 130 128 125 117 115 111 109 97 97 98 124 143 151 159 177 198 208 206 181 210 219 223 263 194 167 171 109 151 148 150 153 154 157
162 159 158 153 151 145 136 128 122 118 112 113 119 115 104 112 113 113 115 110 103 113 140 168 188 206 211 210 188 206 218 213 225 172 162 207 196 190 168 172 171 164 159
161 159 157 150 140 144 132 125 117 115 119 120 114 114 126 129 122 128 134 118 113 104 120 151 191 213 229 191 208 192 203 193 168 183 186 206 182 191 177 191 172 166 162
147 151 154 143 138 140 132 127 122 121 121 123 120 128 133 140 130 141 142 130 114 109 121 117 243 247 245 232 203 164 196 193 216 216 198 178 182 155 172 201 188 175 172
142 136 133 135 138 138 133 130 125 127 130 131 126 134 145 139 141 138 135 137 126 138 137 109 89 55 237 224 208 214 209 224 195 221 207 185 165 159 194 204 198 193 183